Météo par heure à Volkonosha

Ce jour, 2 Octobre, Vendredi

Heure Température Précipitation Vent Pression Humidité
00:00 +12°C° 0 mm 5 m/s 737 mmHg 72%
01:00 +10°C° 0 mm 5 m/s 737 mmHg 73%
02:00 +10°C° 0 mm 5 m/s 737 mmHg 73%
03:00 +10°C° 0 mm 5 m/s 737 mmHg 72%
04:00 +10°C° 0 mm 5 m/s 737 mmHg 72%
05:00 +10°C° 0 mm 5 m/s 737 mmHg 71%
06:00 +10°C° 0.2 mm 5 m/s 737 mmHg 76%
07:00 +10°C° 0.2 mm 6 m/s 737 mmHg 81%
08:00 +10°C° 0.2 mm 6 m/s 737 mmHg 86%
09:00 +11°C° 0 mm 6 m/s 737 mmHg 82%
10:00 +11°C° 0 mm 6 m/s 737 mmHg 78%
11:00 +13°C° 0 mm 5 m/s 737 mmHg 74%
12:00 +14°C° 0 mm 5 m/s 738 mmHg 73%
13:00 +14°C° 0 mm 5 m/s 738 mmHg 72%
14:00 +15°C° 0 mm 5 m/s 738 mmHg 70%
15:00 +15°C° 0 mm 4 m/s 738 mmHg 72%
16:00 +14°C° 0 mm 4 m/s 738 mmHg 75%
17:00 +14°C° 0 mm 3 m/s 738 mmHg 77%
18:00 +13°C° 0 mm 4 m/s 738 mmHg 80%
19:00 +13°C° 0 mm 4 m/s 738 mmHg 84%
20:00 +12°C° 0 mm 5 m/s 738 mmHg 87%
21:00 +12°C° 0 mm 5 m/s 738 mmHg 89%
22:00 +10°C° 0 mm 5 m/s 738 mmHg 91%
23:00 +11°C° 0 mm 4 m/s 738 mmHg 93%

Demain, 3 Octobre, Samedi

Heure Température Précipitation Vent Pression Humidité
00:00 +11°C° 0 mm 4 m/s 738 mmHg 93%
01:00 +10°C° 0 mm 5 m/s 738 mmHg 94%
02:00 +10°C° 0 mm 5 m/s 738 mmHg 95%
03:00 +10°C° 0 mm 5 m/s 738 mmHg 95%
04:00 +10°C° 0 mm 5 m/s 738 mmHg 95%
05:00 +10°C° 0 mm 5 m/s 738 mmHg 95%
06:00 +10°C° 0 mm 5 m/s 738 mmHg 93%
07:00 +10°C° 0 mm 5 m/s 738 mmHg 92%
08:00 +10°C° 0 mm 5 m/s 738 mmHg 90%
09:00 +12°C° 0 mm 5 m/s 738 mmHg 87%
10:00 +13°C° 0 mm 6 m/s 739 mmHg 84%
11:00 +14°C° 0 mm 6 m/s 739 mmHg 80%
12:00 +14°C° 0.1 mm 6 m/s 738 mmHg 80%
13:00 +14°C° 0.1 mm 6 m/s 738 mmHg 79%
14:00 +15°C° 0.1 mm 6 m/s 738 mmHg 78%
15:00 +15°C° 0.1 mm 6 m/s 738 mmHg 79%
16:00 +14°C° 0.1 mm 7 m/s 738 mmHg 80%
17:00 +14°C° 0.1 mm 7 m/s 738 mmHg 81%
18:00 +14°C° 0 mm 7 m/s 738 mmHg 82%
19:00 +14°C° 0 mm 7 m/s 738 mmHg 84%
20:00 +14°C° 0 mm 6 m/s 738 mmHg 85%
21:00 +14°C° 0 mm 6 m/s 737 mmHg 83%
22:00 +14°C° 0 mm 6 m/s 737 mmHg 82%
23:00 +14°C° 0 mm 6 m/s 737 mmHg 80%

Après-demain, 4 Octobre, Dimanche

Heure Température Précipitation Vent Pression Humidité
00:00 +14°C° 0 mm 6 m/s 737 mmHg 80%
01:00 +14°C° 0 mm 6 m/s 737 mmHg 80%
02:00 +14°C° 0 mm 6 m/s 737 mmHg 80%
03:00 +14°C° 0 mm 6 m/s 737 mmHg 81%
04:00 +14°C° 0 mm 6 m/s 737 mmHg 81%
05:00 +14°C° 0 mm 6 m/s 737 mmHg 82%
06:00 +15°C° 0 mm 6 m/s 737 mmHg 81%
07:00 +15°C° 0 mm 7 m/s 737 mmHg 81%
08:00 +15°C° 0 mm 7 m/s 736 mmHg 80%
09:00 +16°C° 0 mm 7 m/s 737 mmHg 75%
10:00 +17°C° 0 mm 8 m/s 737 mmHg 70%
11:00 +18°C° 0 mm 8 m/s 737 mmHg 65%
12:00 +20°C° 0 mm 8 m/s 737 mmHg 64%
13:00 +21°C° 0 mm 8 m/s 737 mmHg 62%
14:00 +21°C° 0 mm 8 m/s 737 mmHg 61%
15:00 +21°C° 0 mm 8 m/s 737 mmHg 63%
16:00 +21°C° 0 mm 7 m/s 737 mmHg 65%
17:00 +20°C° 0 mm 6 m/s 737 mmHg 67%
18:00 +20°C° 0 mm 6 m/s 737 mmHg 69%
19:00 +19°C° 0 mm 6 m/s 737 mmHg 70%
20:00 +19°C° 0 mm 6 m/s 738 mmHg 71%
21:00 +19°C° 0 mm 6 m/s 738 mmHg 73%
22:00 +17°C° 0 mm 5 m/s 738 mmHg 75%
23:00 +17°C° 0 mm 5 m/s 739 mmHg 77%

5 Octobre, Lundi

Heure Température Précipitation Vent Pression Humidité
00:00 +16°C° 0 mm 5 m/s 739 mmHg 78%
01:00 +16°C° 0 mm 5 m/s 739 mmHg 78%
02:00 +15°C° 0 mm 5 m/s 739 mmHg 79%
03:00 +15°C° 0.3 mm 5 m/s 739 mmHg 81%
04:00 +15°C° 0.3 mm 5 m/s 739 mmHg 83%
05:00 +15°C° 0.3 mm 5 m/s 739 mmHg 85%
06:00 +15°C° 0.3 mm 5 m/s 739 mmHg 85%
07:00 +15°C° 0.3 mm 5 m/s 739 mmHg 85%
08:00 +15°C° 0.3 mm 5 m/s 739 mmHg 86%
09:00 +16°C° 0 mm 6 m/s 739 mmHg 81%
10:00 +17°C° 0 mm 6 m/s 739 mmHg 76%
11:00 +18°C° 0 mm 7 m/s 739 mmHg 71%
12:00 +20°C° 0 mm 7 m/s 738 mmHg 70%
13:00 +20°C° 0 mm 7 m/s 738 mmHg 68%
14:00 +21°C° 0 mm 7 m/s 738 mmHg 66%
15:00 +21°C° 0 mm 7 m/s 738 mmHg 68%
16:00 +20°C° 0 mm 6 m/s 737 mmHg 70%
17:00 +20°C° 0 mm 6 m/s 737 mmHg 72%
18:00 +20°C° 0 mm 6 m/s 737 mmHg 73%
19:00 +20°C° 0 mm 6 m/s 737 mmHg 74%
20:00 +20°C° 0 mm 7 m/s 737 mmHg 75%
21:00 +19°C° 0.1 mm 6 m/s 737 mmHg 77%
22:00 +19°C° 0.1 mm 6 m/s 737 mmHg 78%
23:00 +19°C° 0.1 mm 5 m/s 737 mmHg 79%

6 Octobre, Mardi

Heure Température Précipitation Vent Pression Humidité
00:00 +17°C° 0.2 mm 5 m/s 737 mmHg 80%
01:00 +17°C° 0.2 mm 6 m/s 737 mmHg 80%
02:00 +16°C° 0.2 mm 6 m/s 737 mmHg 81%
03:00 +16°C° 0.2 mm 5 m/s 737 mmHg 83%
04:00 +16°C° 0.2 mm 5 m/s 737 mmHg 85%
05:00 +15°C° 0.2 mm 5 m/s 737 mmHg 87%
06:00 +16°C° 0 mm 5 m/s 737 mmHg 87%
07:00 +16°C° 0 mm 5 m/s 737 mmHg 87%
08:00 +16°C° 0 mm 5 m/s 737 mmHg 88%
09:00 +17°C° 0 mm 5 m/s 738 mmHg 84%
10:00 +19°C° 0 mm 5 m/s 738 mmHg 81%
11:00 +19°C° 0 mm 5 m/s 738 mmHg 77%
12:00 +20°C° 0.1 mm 5 m/s 738 mmHg 75%
13:00 +20°C° 0.1 mm 5 m/s 738 mmHg 73%
14:00 +20°C° 0.1 mm 4 m/s 738 mmHg 71%
15:00 +19°C° 0.2 mm 4 m/s 738 mmHg 76%
16:00 +18°C° 0.2 mm 4 m/s 738 mmHg 81%
17:00 +17°C° 0.2 mm 4 m/s 738 mmHg 86%
18:00 +17°C° 1.3 mm 4 m/s 738 mmHg 88%
19:00 +16°C° 1.3 mm 3 m/s 737 mmHg 91%
20:00 +14°C° 1.3 mm 3 m/s 737 mmHg 93%
21:00 +14°C° 0.3 mm 3 m/s 737 mmHg 89%
22:00 +14°C° 0.3 mm 4 m/s 737 mmHg 84%
23:00 +14°C° 0.3 mm 5 m/s 736 mmHg 80%

7 Octobre, Mercredi

Heure Température Précipitation Vent Pression Humidité
00:00 +14°C° 0 mm 5 m/s 736 mmHg 77%
01:00 +14°C° 0 mm 5 m/s 735 mmHg 75%
02:00 +15°C° 0 mm 6 m/s 735 mmHg 72%
03:00 +14°C° 0 mm 6 m/s 735 mmHg 73%
04:00 +14°C° 0 mm 6 m/s 735 mmHg 74%
05:00 +14°C° 0 mm 6 m/s 735 mmHg 75%
06:00 +14°C° 0.2 mm 5 m/s 736 mmHg 80%
07:00 +14°C° 0.2 mm 5 m/s 736 mmHg 85%
08:00 +14°C° 0.2 mm 5 m/s 737 mmHg 91%
09:00 +14°C° 0.1 mm 4 m/s 738 mmHg 88%
10:00 +14°C° 0.1 mm 4 m/s 738 mmHg 84%
11:00 +14°C° 0.1 mm 3 m/s 739 mmHg 81%
12:00 +16°C° 0 mm 3 m/s 739 mmHg 77%
13:00 +16°C° 0 mm 2 m/s 739 mmHg 73%
14:00 +17°C° 0 mm 2 m/s 740 mmHg 69%
15:00 +16°C° 0 mm 2 m/s 740 mmHg 72%
16:00 +16°C° 0 mm 2 m/s 740 mmHg 75%
17:00 +16°C° 0 mm 1 m/s 740 mmHg 78%
18:00 +15°C° 0 mm 2 m/s 741 mmHg 82%
19:00 +14°C° 0 mm 2 m/s 741 mmHg 86%
20:00 +13°C° 0 mm 2 m/s 741 mmHg 90%
21:00 +13°C° 0 mm 2 m/s 741 mmHg 92%
22:00 +12°C° 0 mm 2 m/s 741 mmHg 93%
23:00 +12°C° 0 mm 1 m/s 741 mmHg 94%
Voir plus